Time,TemperatureF,DewpointF,PressureIn,WindDirection,WindDirectionDegrees,WindSpeedMPH,WindSpeedGustMPH,Humidity,HourlyPrecipIn,Conditions,Clouds,dailyrainin,SoftwareType,DateUTC
2013-02-26 00:00:00,26.2,20.8,30.18,SE,129,0.0,3.0,80,0.00,,,0.01,meteohub,2013-02-26 05:00:00,
2013-02-26 00:02:00,26.2,20.8,30.18,SE,129,0.0,3.0,80,0.00,,,0.01,meteohub,2013-02-26 05:02:00,
2013-02-26 00:05:00,26.1,21.0,30.18,SE,129,0.0,3.0,81,0.00,,,0.00,meteohub,2013-02-26 05:05:00,
2013-02-26 00:10:00,26.1,21.0,30.17,SE,129,0.0,3.0,81,0.00,,,0.00,meteohub,2013-02-26 05:10:00,
2013-02-26 00:15:00,25.9,20.8,30.17,SE,129,0.0,0.0,81,0.00,,,0.00,meteohub,2013-02-26 05:15:00,
2013-02-26 00:20:00,25.5,20.5,30.17,SE,129,0.0,0.0,81,0.00,,,0.00,meteohub,2013-02-26 05:20:00,
2013-02-26 00:25:00,25.3,20.7,30.17,SE,129,0.0,0.0,82,0.00,,,0.00,meteohub,2013-02-26 05:25:00,
2013-02-26 00:31:00,25.2,20.5,30.17,SE,129,0.0,0.0,82,0.00,,,0.00,meteohub,2013-02-26 05:31:00,
2013-02-26 00:36:00,25.2,20.5,30.17,SE,129,0.0,0.0,82,0.00,,,0.00,meteohub,2013-02-26 05:36:00,
2013-02-26 00:41:00,25.0,20.5,30.17,SE,129,0.0,0.0,83,0.00,,,0.00,meteohub,2013-02-26 05:41:00,
2013-02-26 00:46:00,25.0,20.5,30.16,SE,129,0.0,0.0,83,0.00,,,0.00,meteohub,2013-02-26 05:46:00,
2013-02-26 00:51:00,24.8,20.7,30.16,SE,129,0.0,0.0,84,0.00,,,0.00,meteohub,2013-02-26 05:51:00,
2013-02-26 00:56:00,24.6,20.5,30.16,SE,129,0.0,0.0,84,0.00,,,0.00,meteohub,2013-02-26 05:56:00,
2013-02-26 01:01:00,24.6,20.5,30.16,SE,129,0.0,0.0,84,0.00,,,0.00,meteohub,2013-02-26 06:01:00,
2013-02-26 01:06:00,24.4,20.3,30.16,SE,129,0.0,0.0,84,0.00,,,0.00,meteohub,2013-02-26 06:06:00,
2013-02-26 01:11:00,24.4,20.3,30.15,SE,129,0.0,0.0,84,0.00,,,0.00,meteohub,2013-02-26 06:11:00,
2013-02-26 01:16:00,24.4,20.3,30.15,SE,129,0.0,0.0,84,0.00,,,0.00,meteohub,2013-02-26 06:16:00,
2013-02-26 01:21:00,24.4,20.7,30.15,ESE,123,0.0,2.0,85,0.00,,,0.00,meteohub,2013-02-26 06:21:00,
2013-02-26 01:26:00,24.8,20.7,30.14,ENE,60,0.0,2.0,84,0.00,,,0.00,meteohub,2013-02-26 06:26:00,
2013-02-26 01:31:00,25.0,20.8,30.14,ENE,69,0.0,2.0,84,0.00,,,0.00,meteohub,2013-02-26 06:31:00,
2013-02-26 01:36:00,25.2,21.0,30.14,SE,126,0.0,3.0,84,0.00,,,0.00,meteohub,2013-02-26 06:36:00,
2013-02-26 01:41:00,25.3,20.8,30.14,SE,126,0.0,3.0,83,0.00,,,0.00,meteohub,2013-02-26 06:41:00,
2013-02-26 01:47:00,25.3,20.8,30.14,ESE,122,0.0,3.0,83,0.00,,,0.00,meteohub,2013-02-26 06:47:00,
2013-02-26 01:52:00,25.3,20.8,30.14,ESE,122,0.0,3.0,83,0.00,,,0.00,meteohub,2013-02-26 06:52:00,
2013-02-26 01:57:00,25.3,20.8,30.14,ESE,122,0.0,2.0,83,0.00,,,0.00,meteohub,2013-02-26 06:57:00,
2013-02-26 02:02:00,25.3,20.8,30.13,ESE,122,0.0,1.0,83,0.00,,,0.00,meteohub,2013-02-26 07:02:00,
2013-02-26 02:07:00,25.3,20.8,30.13,ESE,122,0.0,1.0,83,0.00,,,0.00,meteohub,2013-02-26 07:07:00,
2013-02-26 02:12:00,25.3,20.8,30.14,ESE,122,0.0,2.0,83,0.00,,,0.00,meteohub,2013-02-26 07:12:00,
2013-02-26 02:17:00,25.3,20.8,30.13,ESE,122,0.0,2.0,83,0.00,,,0.00,meteohub,2013-02-26 07:17:00,
2013-02-26 02:22:00,25.2,20.7,30.12,ESE,122,1.0,1.0,83,0.00,,,0.00,meteohub,2013-02-26 07:22:00,
2013-02-26 02:27:00,25.2,20.7,30.12,ESE,122,0.0,2.0,83,0.00,,,0.00,meteohub,2013-02-26 07:27:00,
2013-02-26 02:32:00,25.2,20.7,30.12,ESE,122,0.0,2.0,83,0.00,,,0.00,meteohub,2013-02-26 07:32:00,
2013-02-26 02:37:00,25.3,20.8,30.13,ESE,122,0.0,2.0,83,0.00,,,0.00,meteohub,2013-02-26 07:37:00,
2013-02-26 02:42:00,25.2,20.7,30.13,ESE,122,0.0,2.0,83,0.00,,,0.00,meteohub,2013-02-26 07:42:00,
2013-02-26 02:47:00,25.2,20.7,30.13,ESE,122,0.0,1.0,83,0.00,,,0.00,meteohub,2013-02-26 07:47:00,
2013-02-26 02:52:00,25.0,20.5,30.13,ESE,122,0.0,1.0,83,0.00,,,0.00,meteohub,2013-02-26 07:52:00,
2013-02-26 02:57:00,25.0,20.8,30.13,ESE,122,0.0,0.0,84,0.00,,,0.00,meteohub,2013-02-26 07:57:00,
2013-02-26 03:02:00,25.0,20.8,30.12,ESE,122,0.0,0.0,84,0.00,,,0.00,meteohub,2013-02-26 08:02:00,
2013-02-26 03:07:00,25.0,20.8,30.12,ESE,122,0.0,0.0,84,0.00,,,0.00,meteohub,2013-02-26 08:07:00,
2013-02-26 03:12:00,25.0,20.8,30.12,ESE,122,0.0,0.0,84,0.00,,,0.00,meteohub,2013-02-26 08:12:00,
2013-02-26 03:17:00,25.0,20.8,30.12,ESE,122,0.0,0.0,84,0.00,,,0.00,meteohub,2013-02-26 08:17:00,
2013-02-26 03:22:00,25.0,20.8,30.12,ESE,122,0.0,0.0,84,0.00,,,0.00,meteohub,2013-02-26 08:22:00,
2013-02-26 03:27:00,25.0,20.8,30.11,ESE,122,0.0,0.0,84,0.00,,,0.00,meteohub,2013-02-26 08:27:00,
2013-02-26 03:32:00,25.0,20.8,30.11,ESE,122,0.0,0.0,84,0.00,,,0.00,meteohub,2013-02-26 08:32:00,
2013-02-26 03:37:00,25.0,20.8,30.11,ESE,122,0.0,0.0,84,0.00,,,0.00,meteohub,2013-02-26 08:37:00,
2013-02-26 03:42:00,24.8,20.7,30.10,ESE,122,0.0,0.0,84,0.00,,,0.00,meteohub,2013-02-26 08:42:00,
2013-02-26 03:47:00,25.0,20.8,30.10,ESE,122,0.0,0.0,84,0.00,,,0.00,meteohub,2013-02-26 08:47:00,
2013-02-26 03:52:00,25.0,20.8,30.10,ESE,122,0.0,0.0,84,0.00,,,0.00,meteohub,2013-02-26 08:52:00,
2013-02-26 03:57:00,25.2,21.0,30.09,ESE,122,0.0,0.0,84,0.00,,,0.00,meteohub,2013-02-26 08:57:00,
2013-02-26 04:02:00,25.3,21.2,30.09,ESE,122,1.0,1.0,84,0.00,,,0.00,meteohub,2013-02-26 09:02:00,
2013-02-26 04:07:00,25.5,21.0,30.09,ESE,103,1.0,2.0,83,0.00,,,0.00,meteohub,2013-02-26 09:07:00,
2013-02-26 04:12:00,25.3,20.8,30.08,ESE,103,1.0,2.0,83,0.00,,,0.00,meteohub,2013-02-26 09:12:00,
2013-02-26 04:17:00,25.2,20.7,30.08,SE,135,1.0,2.0,83,0.00,,,0.00,meteohub,2013-02-26 09:17:00,
2013-02-26 04:22:00,25.3,20.8,30.08,SE,127,0.0,4.0,83,0.00,,,0.00,meteohub,2013-02-26 09:22:00,
2013-02-26 04:27:00,25.5,21.0,30.08,SE,140,0.0,4.0,83,0.00,,,0.00,meteohub,2013-02-26 09:27:00,
2013-02-26 04:32:00,25.9,21.2,30.08,SE,140,0.0,4.0,82,0.00,,,0.00,meteohub,2013-02-26 09:32:00,
2013-02-26 04:37:00,25.9,21.2,30.07,SE,140,0.0,2.0,82,0.00,,,0.00,meteohub,2013-02-26 09:37:00,
2013-02-26 04:42:00,25.9,21.2,30.07,SE,140,0.0,2.0,82,0.00,,,0.00,meteohub,2013-02-26 09:42:00,
2013-02-26 04:47:00,25.9,21.2,30.07,SE,140,0.0,1.0,82,0.00,,,0.00,meteohub,2013-02-26 09:47:00,
2013-02-26 04:52:00,25.9,21.2,30.07,SE,140,1.0,1.0,82,0.00,,,0.00,meteohub,2013-02-26 09:52:00,
2013-02-26 04:57:00,26.1,21.4,30.07,SE,140,0.0,1.0,82,0.00,,,0.00,meteohub,2013-02-26 09:57:00,
2013-02-26 05:02:00,26.1,21.4,30.07,SE,140,0.0,2.0,82,0.00,,,0.00,meteohub,2013-02-26 10:02:00,
2013-02-26 05:07:00,26.1,21.0,30.07,SE,140,0.0,2.0,81,0.00,,,0.00,meteohub,2013-02-26 10:07:00,
2013-02-26 05:12:00,26.1,21.4,30.07,SE,140,0.0,0.0,82,0.00,,,0.00,meteohub,2013-02-26 10:12:00,
2013-02-26 05:17:00,26.1,21.4,30.07,SE,140,0.0,0.0,82,0.00,,,0.00,meteohub,2013-02-26 10:17:00,
2013-02-26 05:22:00,25.9,21.2,30.06,SE,140,0.0,0.0,82,0.00,,,0.00,meteohub,2013-02-26 10:22:00,
2013-02-26 05:27:00,25.5,20.8,30.05,SE,140,0.0,0.0,82,0.00,,,0.00,meteohub,2013-02-26 10:27:00,
2013-02-26 05:32:00,25.5,21.0,30.05,SE,139,0.0,1.0,83,0.00,,,0.00,meteohub,2013-02-26 10:32:00,
2013-02-26 05:37:00,25.9,21.4,30.04,SE,137,0.0,2.0,83,0.00,,,0.00,meteohub,2013-02-26 10:37:00,
2013-02-26 05:42:00,26.1,21.6,30.04,ESE,108,4.0,4.0,83,0.00,,,0.00,meteohub,2013-02-26 10:42:00,
2013-02-26 05:47:00,26.2,21.6,30.03,SE,135,3.0,5.0,82,0.00,,,0.00,meteohub,2013-02-26 10:47:00,
2013-02-26 05:52:00,26.4,21.4,30.03,SE,131,2.0,5.0,81,0.00,,,0.00,meteohub,2013-02-26 10:52:00,
2013-02-26 05:57:00,26.4,21.4,30.03,SSE,149,3.0,5.0,81,0.00,,,0.00,meteohub,2013-02-26 10:57:00,
2013-02-26 06:02:00,26.4,21.7,30.04,SE,146,0.0,5.0,82,0.00,,,0.00,meteohub,2013-02-26 11:02:00,
2013-02-26 06:07:00,26.6,21.6,30.04,SE,146,0.0,5.0,81,0.00,,,0.00,meteohub,2013-02-26 11:07:00,
2013-02-26 06:12:00,26.8,21.7,30.04,SE,146,0.0,5.0,81,0.00,,,0.00,meteohub,2013-02-26 11:12:00,
2013-02-26 06:17:00,26.8,21.7,30.04,SE,146,0.0,2.0,81,0.00,,,0.00,meteohub,2013-02-26 11:17:00,
2013-02-26 06:22:00,26.8,21.7,30.05,SE,146,0.0,1.0,81,0.00,,,0.00,meteohub,2013-02-26 11:22:00,
2013-02-26 06:27:00,26.8,22.1,30.05,SSW,198,3.0,3.0,82,0.00,,,0.00,meteohub,2013-02-26 11:27:00,
2013-02-26 06:32:00,27.1,22.1,30.05,SE,143,0.0,4.0,81,0.00,,,0.00,meteohub,2013-02-26 11:32:00,
2013-02-26 06:37:00,27.3,22.3,30.05,SSE,163,1.0,4.0,81,0.00,,,0.00,meteohub,2013-02-26 11:37:00,
2013-02-26 06:42:00,27.7,22.3,30.04,SSE,150,1.0,5.0,80,0.00,,,0.00,meteohub,2013-02-26 11:42:00,
2013-02-26 06:47:00,27.9,22.5,30.04,SE,140,3.0,5.0,80,0.00,,,0.00,meteohub,2013-02-26 11:47:00,
2013-02-26 06:52:00,27.9,22.5,30.04,SSW,193,0.0,5.0,80,0.00,,,0.00,meteohub,2013-02-26 11:52:00,
2013-02-26 06:57:00,27.9,22.5,30.04,SSW,193,1.0,5.0,80,0.00,,,0.00,meteohub,2013-02-26 11:57:00,
2013-02-26 07:02:00,28.2,22.8,30.04,South,189,1.0,6.0,80,0.00,,,0.00,meteohub,2013-02-26 12:02:00,
2013-02-26 07:07:00,28.4,22.6,30.04,SSW,201,1.0,6.0,79,0.00,,,0.00,meteohub,2013-02-26 12:07:00,
2013-02-26 07:12:00,28.6,23.2,30.03,SE,146,3.0,6.0,80,0.00,,,0.00,meteohub,2013-02-26 12:12:00,
2013-02-26 07:17:00,28.6,22.8,30.02,SSE,161,2.0,7.0,79,0.00,,,0.00,meteohub,2013-02-26 12:17:00,
2013-02-26 07:22:00,28.8,23.0,30.03,South,184,3.0,7.0,79,0.00,,,0.00,meteohub,2013-02-26 12:22:00,
2013-02-26 07:27:00,28.8,23.0,30.03,SSE,149,1.0,7.0,79,0.00,,,0.00,meteohub,2013-02-26 12:27:00,
2013-02-26 07:32:00,28.9,23.2,30.02,SE,144,2.0,5.0,79,0.00,,,0.00,meteohub,2013-02-26 12:32:00,
2013-02-26 07:37:00,29.1,23.4,30.03,South,181,1.0,5.0,79,0.00,,,0.00,meteohub,2013-02-26 12:37:00,
2013-02-26 07:42:00,29.3,23.5,30.03,SE,140,2.0,5.0,79,0.00,,,0.00,meteohub,2013-02-26 12:42:00,
2013-02-26 07:47:00,29.5,23.7,30.03,SE,145,2.0,5.0,79,0.00,,,0.00,meteohub,2013-02-26 12:47:00,
2013-02-26 07:52:00,29.5,23.7,30.03,SSE,152,5.0,5.0,79,0.00,,,0.00,meteohub,2013-02-26 12:52:00,
2013-02-26 07:57:00,29.7,23.9,30.03,SSE,159,2.0,5.0,79,0.00,,,0.00,meteohub,2013-02-26 12:57:00,
2013-02-26 08:02:00,29.8,23.9,30.03,SE,146,3.0,6.0,78,0.00,,,0.00,meteohub,2013-02-26 13:02:00,
2013-02-26 08:07:00,29.8,23.9,30.03,SE,143,3.0,6.0,78,0.00,,,0.00,meteohub,2013-02-26 13:07:00,
2013-02-26 08:12:00,30.0,24.1,30.02,SE,130,2.0,6.0,78,0.00,,,0.00,meteohub,2013-02-26 13:12:00,
2013-02-26 08:17:00,30.2,24.3,30.02,SE,140,7.0,7.0,78,0.00,,,0.00,meteohub,2013-02-26 13:17:00,
2013-02-26 08:22:00,30.4,24.3,30.03,SSE,159,3.0,7.0,78,0.00,,,0.00,meteohub,2013-02-26 13:22:00,
2013-02-26 08:27:00,30.4,24.3,30.02,SE,144,3.0,7.0,78,0.00,,,0.00,meteohub,2013-02-26 13:27:00,
2013-02-26 08:32:00,30.6,24.4,30.02,SE,138,4.0,7.0,78,0.00,,,0.00,meteohub,2013-02-26 13:32:00,
2013-02-26 08:37:00,30.7,24.4,30.02,South,169,4.0,6.0,77,0.00,,,0.00,meteohub,2013-02-26 13:37:00,
2013-02-26 08:42:00,30.9,24.6,30.01,SSE,147,2.0,7.0,77,0.00,,,0.00,meteohub,2013-02-26 13:42:00,
2013-02-26 08:47:00,31.3,24.6,30.01,SE,143,3.0,11.0,76,0.00,,,0.00,meteohub,2013-02-26 13:47:00,
2013-02-26 08:52:00,31.5,25.2,30.00,SSE,164,6.0,11.0,77,0.00,,,0.00,meteohub,2013-02-26 13:52:00,
2013-02-26 08:57:00,31.8,25.2,30.01,SSE,167,4.0,11.0,76,0.00,,,0.00,meteohub,2013-02-26 13:57:00,
2013-02-26 09:02:00,32.0,25.3,30.01,SSE,168,4.0,10.0,76,0.00,,,0.00,meteohub,2013-02-26 14:02:00,
2013-02-26 09:07:00,32.2,25.2,30.00,SSE,153,5.0,10.0,75,0.00,,,0.00,meteohub,2013-02-26 14:07:00,
2013-02-26 09:12:00,32.4,25.3,29.99,SSE,157,8.0,10.0,75,0.00,,,0.00,meteohub,2013-02-26 14:12:00,
2013-02-26 09:17:00,32.5,25.2,29.99,SE,128,7.0,10.0,74,0.00,,,0.00,meteohub,2013-02-26 14:17:00,
2013-02-26 09:22:00,32.7,25.3,29.99,SSW,199,2.0,10.0,74,0.00,,,0.00,meteohub,2013-02-26 14:22:00,
2013-02-26 09:27:00,33.1,25.3,29.99,SSE,159,9.0,10.0,73,0.00,,,0.00,meteohub,2013-02-26 14:27:00,
2013-02-26 09:32:00,33.3,25.5,29.98,SSE,151,10.0,12.0,73,0.00,,,0.00,meteohub,2013-02-26 14:32:00,
2013-02-26 09:37:00,33.4,25.7,29.98,SE,146,7.0,12.0,73,0.00,,,0.00,meteohub,2013-02-26 14:37:00,
2013-02-26 09:42:00,33.6,25.5,29.98,SSE,148,5.0,12.0,72,0.00,,,0.00,meteohub,2013-02-26 14:42:00,
2013-02-26 09:47:00,33.6,25.2,29.98,SSE,150,7.0,12.0,71,0.00,,,0.00,meteohub,2013-02-26 14:47:00,
2013-02-26 09:52:00,34.0,25.9,29.97,ESE,123,9.0,12.0,72,0.00,,,0.00,meteohub,2013-02-26 14:52:00,
2013-02-26 09:57:00,34.2,25.7,29.97,SSE,148,3.0,13.0,71,0.00,,,0.00,meteohub,2013-02-26 14:57:00,
2013-02-26 10:02:00,34.3,25.5,29.97,SSE,161,6.0,13.0,70,0.00,,,0.00,meteohub,2013-02-26 15:02:00,
2013-02-26 10:07:00,34.5,25.7,29.96,South,188,11.0,15.0,70,0.00,,,0.00,meteohub,2013-02-26 15:07:00,
2013-02-26 10:12:00,34.5,25.7,29.96,SSE,150,6.0,21.0,70,0.00,,,0.00,meteohub,2013-02-26 15:12:00,
2013-02-26 10:17:00,34.5,25.3,29.97,South,170,9.0,21.0,69,0.00,,,0.00,meteohub,2013-02-26 15:17:00,
2013-02-26 10:22:00,34.7,25.5,29.97,SE,139,6.0,21.0,69,0.00,,,0.00,meteohub,2013-02-26 15:22:00,
2013-02-26 10:27:00,34.9,25.7,29.96,SSE,161,4.0,15.0,69,0.00,,,0.00,meteohub,2013-02-26 15:27:00,
2013-02-26 10:32:00,34.9,25.7,29.95,SE,136,7.0,15.0,69,0.00,,,0.00,meteohub,2013-02-26 15:32:00,
2013-02-26 10:37:00,35.1,25.9,29.94,SE,138,6.0,12.0,69,0.00,,,0.00,meteohub,2013-02-26 15:37:00,
2013-02-26 10:42:00,35.1,25.9,29.95,SSW,213,7.0,11.0,69,0.00,,,0.00,meteohub,2013-02-26 15:42:00,
2013-02-26 10:47:00,35.1,25.9,29.96,SE,143,6.0,11.0,69,0.00,,,0.00,meteohub,2013-02-26 15:47:00,
2013-02-26 10:52:00,35.2,26.1,29.95,South,178,9.0,13.0,69,0.00,,,0.00,meteohub,2013-02-26 15:52:00,
2013-02-26 10:57:00,35.4,26.2,29.94,SSW,194,7.0,13.0,69,0.00,,,0.00,meteohub,2013-02-26 15:57:00,
2013-02-26 11:02:00,35.4,26.2,29.94,SSE,147,10.0,13.0,69,0.00,,,0.00,meteohub,2013-02-26 16:02:00,
2013-02-26 11:07:00,35.6,26.1,29.95,SSE,150,2.0,13.0,68,0.00,,,0.00,meteohub,2013-02-26 16:07:00,
2013-02-26 11:12:00,35.8,26.2,29.94,SSE,167,5.0,13.0,68,0.00,,,0.00,meteohub,2013-02-26 16:12:00,
2013-02-26 11:17:00,36.0,26.8,29.94,SSE,165,7.0,13.0,69,0.00,,,0.00,meteohub,2013-02-26 16:17:00,
2013-02-26 11:22:00,36.1,26.2,29.94,South,180,9.0,14.0,67,0.00,,,0.00,meteohub,2013-02-26 16:22:00,
2013-02-26 11:27:00,36.7,27.1,29.94,SW,214,4.0,18.0,68,0.00,,,0.00,meteohub,2013-02-26 16:27:00,
2013-02-26 11:32:00,36.9,26.6,29.94,SSE,167,5.0,18.0,66,0.00,,,0.00,meteohub,2013-02-26 16:32:00,
2013-02-26 11:37:00,37.0,26.8,29.94,SSE,168,3.0,13.0,66,0.00,,,0.00,meteohub,2013-02-26 16:37:00,
2013-02-26 11:42:00,37.0,26.8,29.93,SSE,154,5.0,13.0,66,0.00,,,0.00,meteohub,2013-02-26 16:42:00,
2013-02-26 11:47:00,37.0,26.8,29.93,SSW,204,6.0,14.0,66,0.00,,,0.00,meteohub,2013-02-26 16:47:00,
2013-02-26 11:52:00,36.9,27.0,29.92,South,180,9.0,16.0,67,0.00,,,0.00,meteohub,2013-02-26 16:52:00,
2013-02-26 11:57:00,36.5,27.7,29.92,SSE,160,4.0,17.0,70,0.00,,,0.00,meteohub,2013-02-26 16:57:00,
2013-02-26 12:02:00,36.3,27.5,29.91,SSW,207,4.0,17.0,70,0.00,,,0.00,meteohub,2013-02-26 17:02:00,
2013-02-26 12:07:00,36.3,27.5,29.91,South,190,5.0,17.0,70,0.00,,,0.00,meteohub,2013-02-26 17:07:00,
2013-02-26 12:12:00,36.3,27.9,29.90,SSE,160,7.0,12.0,71,0.00,,,0.00,meteohub,2013-02-26 17:12:00,
2013-02-26 12:17:00,36.1,28.4,29.90,SE,136,9.0,14.0,73,0.00,,,0.00,meteohub,2013-02-26 17:17:00,
2013-02-26 12:22:00,36.0,28.2,29.89,SSE,150,4.0,14.0,73,0.00,,,0.00,meteohub,2013-02-26 17:22:00,
2013-02-26 12:27:00,36.0,28.2,29.89,South,169,9.0,14.0,73,0.00,,,0.00,meteohub,2013-02-26 17:27:00,
2013-02-26 12:32:00,36.1,28.4,29.88,SSE,152,5.0,14.0,73,0.00,,,0.00,meteohub,2013-02-26 17:32:00,
2013-02-26 12:37:00,36.1,28.6,29.88,SE,142,8.0,14.0,74,0.00,,,0.00,meteohub,2013-02-26 17:37:00,
2013-02-26 12:42:00,36.1,28.6,29.88,South,182,5.0,14.0,74,0.00,,,0.00,meteohub,2013-02-26 17:42:00,
2013-02-26 12:47:00,36.3,29.1,29.88,South,177,9.0,14.0,75,0.00,,,0.00,meteohub,2013-02-26 17:47:00,
2013-02-26 12:52:00,36.3,28.8,29.87,SSE,163,12.0,14.0,74,0.01,,,0.01,meteohub,2013-02-26 17:52:00,
2013-02-26 12:57:00,36.3,29.1,29.87,SSE,149,7.0,14.0,75,0.01,,,0.01,meteohub,2013-02-26 17:57:00,
2013-02-26 13:02:00,36.3,29.1,29.87,South,185,7.0,14.0,75,0.01,,,0.01,meteohub,2013-02-26 18:02:00,
2013-02-26 13:07:00,36.5,28.9,29.86,South,175,3.0,16.0,74,0.01,,,0.01,meteohub,2013-02-26 18:07:00,
2013-02-26 13:12:00,36.7,29.5,29.86,South,188,7.0,16.0,75,0.01,,,0.01,meteohub,2013-02-26 18:12:00,
2013-02-26 13:17:00,36.7,29.5,29.85,SSW,207,10.0,16.0,75,0.01,,,0.01,meteohub,2013-02-26 18:17:00,
2013-02-26 13:22:00,36.9,29.3,29.84,SSW,199,6.0,18.0,74,0.01,,,0.01,meteohub,2013-02-26 18:22:00,
2013-02-26 13:27:00,36.9,29.3,29.84,South,184,4.0,18.0,74,0.01,,,0.01,meteohub,2013-02-26 18:27:00,
2013-02-26 13:32:00,36.9,30.0,29.84,SSE,168,4.0,18.0,76,0.01,,,0.01,meteohub,2013-02-26 18:32:00,
2013-02-26 13:37:00,36.7,30.2,29.83,SSE,149,7.0,18.0,77,0.01,,,0.01,meteohub,2013-02-26 18:37:00,
2013-02-26 13:42:00,36.3,30.4,29.83,SW,224,8.0,16.0,79,0.01,,,0.01,meteohub,2013-02-26 18:42:00,
2013-02-26 13:47:00,36.1,30.6,29.83,SSW,198,6.0,19.0,80,0.01,,,0.01,meteohub,2013-02-26 18:47:00,
2013-02-26 13:52:00,36.0,30.9,29.83,SSE,158,7.0,19.0,82,0.01,,,0.02,meteohub,2013-02-26 18:52:00,
2013-02-26 13:57:00,35.8,31.5,29.83,South,178,5.0,19.0,84,0.01,,,0.02,meteohub,2013-02-26 18:57:00,
2013-02-26 14:02:00,35.6,31.5,29.83,South,177,5.0,15.0,85,0.01,,,0.02,meteohub,2013-02-26 19:02:00,
2013-02-26 14:07:00,35.4,31.3,29.82,South,186,6.0,14.0,85,0.01,,,0.02,meteohub,2013-02-26 19:07:00,
2013-02-26 14:12:00,35.4,31.6,29.81,SSE,159,13.0,14.0,86,0.01,,,0.02,meteohub,2013-02-26 19:12:00,
2013-02-26 14:17:00,35.4,31.6,29.81,South,182,5.0,15.0,86,0.01,,,0.02,meteohub,2013-02-26 19:17:00,
2013-02-26 14:22:00,35.4,31.6,29.81,SSW,192,10.0,16.0,86,0.01,,,0.02,meteohub,2013-02-26 19:22:00,
2013-02-26 14:27:00,35.4,31.3,29.80,SSW,200,7.0,16.0,85,0.01,,,0.02,meteohub,2013-02-26 19:27:00,
2013-02-26 14:32:00,35.4,31.1,29.80,South,186,12.0,16.0,84,0.01,,,0.02,meteohub,2013-02-26 19:32:00,
2013-02-26 14:37:00,35.2,31.1,29.80,SSW,194,10.0,17.0,85,0.02,,,0.03,meteohub,2013-02-26 19:37:00,
2013-02-26 14:42:00,35.2,31.1,29.79,SSE,153,7.0,22.0,85,0.02,,,0.03,meteohub,2013-02-26 19:42:00,
2013-02-26 14:47:00,35.1,31.3,29.79,South,186,4.0,22.0,86,0.03,,,0.04,meteohub,2013-02-26 19:47:00,
2013-02-26 14:52:00,34.9,31.5,29.79,South,184,8.0,20.0,87,0.02,,,0.04,meteohub,2013-02-26 19:52:00,
2013-02-26 14:57:00,34.5,31.3,29.78,SE,145,8.0,17.0,88,0.02,,,0.04,meteohub,2013-02-26 19:57:00,
2013-02-26 15:02:00,34.5,31.6,29.77,SSE,153,5.0,16.0,89,0.03,,,0.05,meteohub,2013-02-26 20:02:00,
2013-02-26 15:07:00,34.5,31.6,29.77,SE,142,6.0,16.0,89,0.03,,,0.05,meteohub,2013-02-26 20:07:00,
2013-02-26 15:12:00,34.3,31.6,29.76,SW,229,13.0,18.0,90,0.03,,,0.05,meteohub,2013-02-26 20:12:00,
2013-02-26 15:17:00,34.5,31.6,29.76,SSW,199,7.0,19.0,89,0.04,,,0.06,meteohub,2013-02-26 20:17:00,
2013-02-26 15:22:00,34.3,31.5,29.75,SE,142,9.0,19.0,89,0.04,,,0.06,meteohub,2013-02-26 20:22:00,
2013-02-26 15:27:00,34.3,31.6,29.75,SSE,154,5.0,19.0,90,0.05,,,0.07,meteohub,2013-02-26 20:27:00,
2013-02-26 15:32:00,34.3,31.5,29.75,SSE,161,6.0,19.0,89,0.06,,,0.08,meteohub,2013-02-26 20:32:00,
2013-02-26 15:37:00,34.2,31.3,29.76,SSW,202,13.0,18.0,89,0.05,,,0.08,meteohub,2013-02-26 20:37:00,
2013-02-26 15:42:00,34.0,31.1,29.75,South,178,4.0,20.0,89,0.05,,,0.08,meteohub,2013-02-26 20:42:00,
2013-02-26 15:47:00,34.0,31.3,29.75,South,177,8.0,20.0,90,0.05,,,0.09,meteohub,2013-02-26 20:47:00,
2013-02-26 15:52:00,33.6,30.9,29.76,SSW,205,9.0,20.0,90,0.06,,,0.09,meteohub,2013-02-26 20:52:00,
2013-02-26 15:57:00,33.6,30.9,29.76,SE,143,15.0,20.0,90,0.06,,,0.10,meteohub,2013-02-26 20:57:00,
2013-02-26 16:02:00,33.6,30.9,29.76,South,182,13.0,19.0,90,0.07,,,0.12,meteohub,2013-02-26 21:02:00,
2013-02-26 16:07:00,33.4,31.1,29.77,SSE,156,8.0,19.0,91,0.08,,,0.12,meteohub,2013-02-26 21:07:00,
2013-02-26 16:12:00,33.4,31.1,29.77,SSE,154,3.0,19.0,91,0.08,,,0.14,meteohub,2013-02-26 21:12:00,
2013-02-26 16:17:00,33.3,30.9,29.76,SSW,209,10.0,18.0,91,0.10,,,0.16,meteohub,2013-02-26 21:17:00,
2013-02-26 16:22:00,33.3,31.1,29.75,SSE,148,5.0,18.0,92,0.11,,,0.17,meteohub,2013-02-26 21:22:00,
2013-02-26 16:27:00,33.3,31.1,29.75,SSW,194,14.0,18.0,92,0.12,,,0.19,meteohub,2013-02-26 21:27:00,
2013-02-26 16:32:00,33.3,31.1,29.75,SSE,155,10.0,18.0,92,0.14,,,0.22,meteohub,2013-02-26 21:32:00,
2013-02-26 16:37:00,33.1,31.3,29.75,South,173,6.0,23.0,93,0.16,,,0.24,meteohub,2013-02-26 21:37:00,
2013-02-26 16:42:00,33.1,31.3,29.76,SSW,201,7.0,23.0,93,0.19,,,0.28,meteohub,2013-02-26 21:42:00,
2013-02-26 16:47:00,33.1,31.3,29.75,SSW,202,13.0,23.0,93,0.21,,,0.30,meteohub,2013-02-26 21:47:00,
2013-02-26 16:52:00,33.3,31.5,29.75,South,173,7.0,19.0,93,0.21,,,0.31,meteohub,2013-02-26 21:52:00,
2013-02-26 16:57:00,33.3,31.5,29.75,SSW,202,14.0,19.0,93,0.21,,,0.32,meteohub,2013-02-26 21:57:00,
2013-02-26 17:02:00,33.3,31.5,29.74,SW,217,12.0,19.0,93,0.20,,,0.32,meteohub,2013-02-26 22:02:00,
2013-02-26 17:07:00,33.3,31.5,29.74,SSW,197,7.0,23.0,93,0.19,,,0.32,meteohub,2013-02-26 22:07:00,
2013-02-26 17:12:00,33.3,31.5,29.74,SSW,192,10.0,23.0,93,0.18,,,0.33,meteohub,2013-02-26 22:12:00,
2013-02-26 17:17:00,33.4,31.6,29.74,SSW,199,7.0,23.0,93,0.17,,,0.33,meteohub,2013-02-26 22:17:00,
2013-02-26 17:22:00,33.4,31.6,29.75,SW,222,6.0,18.0,93,0.16,,,0.34,meteohub,2013-02-26 22:22:00,
2013-02-26 17:27:00,33.4,31.6,29.74,South,179,6.0,18.0,93,0.15,,,0.35,meteohub,2013-02-26 22:27:00,
2013-02-26 17:32:00,33.4,31.6,29.74,SW,214,8.0,18.0,93,0.12,,,0.35,meteohub,2013-02-26 22:32:00,
2013-02-26 17:37:00,33.4,31.6,29.74,WSW,241,8.0,16.0,93,0.10,,,0.36,meteohub,2013-02-26 22:37:00,
2013-02-26 17:42:00,33.4,31.8,29.73,SSW,194,13.0,16.0,94,0.08,,,0.37,meteohub,2013-02-26 22:42:00,
2013-02-26 17:47:00,33.4,31.8,29.73,SSE,167,9.0,15.0,94,0.08,,,0.38,meteohub,2013-02-26 22:47:00,
2013-02-26 17:52:00,33.4,31.8,29.73,SSE,157,9.0,18.0,94,0.07,,,0.38,meteohub,2013-02-26 22:52:00,
2013-02-26 17:57:00,33.4,31.8,29.72,South,175,6.0,18.0,94,0.06,,,0.38,meteohub,2013-02-26 22:57:00,
2013-02-26 18:03:00,33.4,31.8,29.72,SSE,163,9.0,19.0,94,0.08,,,0.40,meteohub,2013-02-26 23:03:00,
2013-02-26 18:08:00,33.4,31.8,29.72,SE,135,6.0,19.0,94,0.07,,,0.40,meteohub,2013-02-26 23:08:00,
2013-02-26 18:13:00,33.4,31.8,29.72,South,188,11.0,19.0,94,0.07,,,0.40,meteohub,2013-02-26 23:13:00,
2013-02-26 18:18:00,33.4,31.8,29.72,South,186,4.0,16.0,94,0.07,,,0.41,meteohub,2013-02-26 23:18:00,
2013-02-26 18:23:00,33.4,31.8,29.71,SSW,207,8.0,16.0,94,0.07,,,0.41,meteohub,2013-02-26 23:23:00,
2013-02-26 18:28:00,33.6,32.0,29.71,SW,225,13.0,21.0,94,0.06,,,0.41,meteohub,2013-02-26 23:28:00,
2013-02-26 18:33:00,33.4,31.8,29.71,SSE,167,5.0,21.0,94,0.06,,,0.41,meteohub,2013-02-26 23:33:00,
2013-02-26 18:38:00,33.3,31.6,29.71,SE,139,5.0,18.0,94,0.06,,,0.42,meteohub,2013-02-26 23:38:00,
2013-02-26 18:43:00,33.3,31.6,29.71,SSW,194,9.0,18.0,94,0.05,,,0.42,meteohub,2013-02-26 23:43:00,
2013-02-26 18:48:00,33.4,31.8,29.71,SE,132,9.0,16.0,94,0.06,,,0.43,meteohub,2013-02-26 23:48:00,
2013-02-26 18:53:00,33.6,32.4,29.71,South,178,10.0,16.0,95,0.06,,,0.44,meteohub,2013-02-26 23:53:00,
2013-02-26 18:58:00,33.8,32.5,29.70,SSE,155,6.0,16.0,95,0.05,,,0.44,meteohub,2013-02-26 23:58:00,
2013-02-26 19:03:00,33.8,32.2,29.70,SSE,157,8.0,17.0,94,0.05,,,0.45,meteohub,2013-02-27 00:03:00,
2013-02-26 19:08:00,33.8,32.2,29.70,SE,139,9.0,17.0,94,0.05,,,0.45,meteohub,2013-02-27 00:08:00,
2013-02-26 19:14:00,33.6,32.0,29.69,South,175,9.0,18.0,94,0.06,,,0.46,meteohub,2013-02-27 00:14:00,
2013-02-26 19:19:00,33.6,32.0,29.69,South,182,6.0,18.0,94,0.05,,,0.46,meteohub,2013-02-27 00:19:00,
2013-02-26 19:24:00,33.6,32.0,29.69,South,169,8.0,18.0,94,0.05,,,0.46,meteohub,2013-02-27 00:24:00,
2013-02-26 19:29:00,33.8,32.2,29.69,SSE,165,7.0,22.0,94,0.06,,,0.47,meteohub,2013-02-27 00:29:00,
2013-02-26 19:34:00,34.0,32.4,29.69,SSW,209,8.0,22.0,94,0.06,,,0.47,meteohub,2013-02-27 00:34:00,
2013-02-26 19:39:00,34.0,32.4,29.69,SSW,198,12.0,22.0,94,0.06,,,0.48,meteohub,2013-02-27 00:39:00,
2013-02-26 19:44:00,34.0,32.4,29.69,South,188,13.0,16.0,94,0.07,,,0.49,meteohub,2013-02-27 00:44:00,
2013-02-26 19:49:00,34.2,32.5,29.69,SE,142,11.0,16.0,94,0.05,,,0.49,meteohub,2013-02-27 00:49:00,
2013-02-26 19:54:00,34.2,32.5,29.69,SSW,196,18.0,22.0,94,0.06,,,0.50,meteohub,2013-02-27 00:54:00,
2013-02-26 19:59:00,34.0,32.4,29.69,SSW,201,7.0,22.0,94,0.07,,,0.52,meteohub,2013-02-27 00:59:00,
2013-02-26 20:04:00,34.0,32.4,29.68,SE,137,6.0,22.0,94,0.07,,,0.52,meteohub,2013-02-27 01:04:00,
2013-02-26 20:09:00,34.0,32.4,29.69,SSW,209,8.0,19.0,94,0.08,,,0.53,meteohub,2013-02-27 01:09:00,
2013-02-26 20:15:00,34.0,32.4,29.68,South,173,8.0,19.0,94,0.08,,,0.54,meteohub,2013-02-27 01:15:00,
2013-02-26 20:20:00,33.6,32.0,29.68,South,178,7.0,19.0,94,0.08,,,0.54,meteohub,2013-02-27 01:20:00,
2013-02-26 20:25:00,33.6,32.0,29.67,SSW,213,8.0,19.0,94,0.07,,,0.55,meteohub,2013-02-27 01:25:00,
2013-02-26 20:30:00,33.6,32.0,29.67,SSW,196,7.0,18.0,94,0.08,,,0.55,meteohub,2013-02-27 01:30:00,
2013-02-26 20:35:00,33.4,31.8,29.67,SE,143,8.0,18.0,94,0.07,,,0.55,meteohub,2013-02-27 01:35:00,
2013-02-26 20:40:00,33.6,32.4,29.67,SSW,197,14.0,15.0,95,0.07,,,0.56,meteohub,2013-02-27 01:40:00,
2013-02-26 20:45:00,33.6,32.0,29.67,SSW,197,10.0,15.0,94,0.06,,,0.56,meteohub,2013-02-27 01:45:00,
2013-02-26 20:51:00,33.6,32.0,29.66,South,181,5.0,15.0,94,0.05,,,0.56,meteohub,2013-02-27 01:51:00,
2013-02-26 20:56:00,33.4,31.8,29.66,South,172,4.0,15.0,94,0.05,,,0.57,meteohub,2013-02-27 01:56:00,
2013-02-26 21:01:00,33.4,32.2,29.66,SE,137,4.0,15.0,95,0.04,,,0.57,meteohub,2013-02-27 02:01:00,
2013-02-26 21:06:00,33.4,31.8,29.66,SE,145,7.0,13.0,94,0.05,,,0.58,meteohub,2013-02-27 02:06:00,
2013-02-26 21:11:00,33.6,32.4,29.65,SSE,151,10.0,19.0,95,0.04,,,0.58,meteohub,2013-02-27 02:11:00,
2013-02-26 21:16:00,33.8,32.5,29.65,SSW,196,12.0,19.0,95,0.04,,,0.58,meteohub,2013-02-27 02:16:00,
2013-02-26 21:21:00,33.8,32.5,29.65,SSE,151,4.0,19.0,95,0.05,,,0.59,meteohub,2013-02-27 02:21:00,
2013-02-26 21:26:00,34.0,32.7,29.65,SSW,204,8.0,15.0,95,0.04,,,0.59,meteohub,2013-02-27 02:26:00,
2013-02-26 21:32:00,34.2,32.9,29.65,SSE,159,5.0,14.0,95,0.04,,,0.59,meteohub,2013-02-27 02:32:00,
2013-02-26 21:37:00,34.2,32.9,29.65,South,171,13.0,15.0,95,0.05,,,0.60,meteohub,2013-02-27 02:37:00,
2013-02-26 21:42:00,34.3,33.1,29.65,South,188,9.0,15.0,95,0.04,,,0.60,meteohub,2013-02-27 02:42:00,
2013-02-26 21:47:00,34.3,33.1,29.65,SSE,167,7.0,16.0,95,0.04,,,0.60,meteohub,2013-02-27 02:47:00,
2013-02-26 21:52:00,34.3,33.1,29.65,South,174,2.0,16.0,95,0.04,,,0.61,meteohub,2013-02-27 02:52:00,
2013-02-26 21:57:00,34.5,33.3,29.64,SSW,211,6.0,17.0,95,0.04,,,0.61,meteohub,2013-02-27 02:57:00,
2013-02-26 22:02:00,34.5,33.3,29.65,South,178,3.0,17.0,95,0.05,,,0.62,meteohub,2013-02-27 03:02:00,
2013-02-26 22:08:00,34.7,33.1,29.64,SSW,195,5.0,17.0,94,0.04,,,0.62,meteohub,2013-02-27 03:08:00,
2013-02-26 22:13:00,34.7,33.1,29.64,South,190,4.0,12.0,94,0.04,,,0.62,meteohub,2013-02-27 03:13:00,
2013-02-26 22:18:00,34.7,33.1,29.64,SSE,157,3.0,12.0,94,0.03,,,0.62,meteohub,2013-02-27 03:18:00,
2013-02-26 22:23:00,34.9,33.3,29.63,SSW,200,6.0,12.0,94,0.04,,,0.63,meteohub,2013-02-27 03:23:00,
2013-02-26 22:28:00,34.9,33.3,29.63,SW,215,4.0,13.0,94,0.04,,,0.63,meteohub,2013-02-27 03:28:00,
2013-02-26 22:33:00,34.9,33.3,29.63,SSW,193,7.0,13.0,94,0.03,,,0.63,meteohub,2013-02-27 03:33:00,
2013-02-26 22:39:00,34.9,33.3,29.63,South,184,6.0,13.0,94,0.04,,,0.64,meteohub,2013-02-27 03:39:00,
2013-02-26 22:44:00,34.9,33.3,29.63,South,175,13.0,13.0,94,0.04,,,0.64,meteohub,2013-02-27 03:44:00,
2013-02-26 22:49:00,34.9,33.3,29.63,South,178,6.0,13.0,94,0.03,,,0.64,meteohub,2013-02-27 03:49:00,
2013-02-26 22:54:00,34.9,33.3,29.63,SSW,196,4.0,16.0,94,0.03,,,0.64,meteohub,2013-02-27 03:54:00,
2013-02-26 22:59:00,35.1,33.4,29.63,SSW,205,5.0,16.0,94,0.03,,,0.64,meteohub,2013-02-27 03:59:00,
2013-02-26 23:05:00,35.1,33.4,29.63,South,183,5.0,16.0,94,0.02,,,0.64,meteohub,2013-02-27 04:05:00,
2013-02-26 23:10:00,35.1,33.4,29.62,SSE,158,7.0,16.0,94,0.03,,,0.65,meteohub,2013-02-27 04:10:00,
2013-02-26 23:15:00,35.1,33.4,29.62,SSW,207,7.0,16.0,94,0.03,,,0.65,meteohub,2013-02-27 04:15:00,
2013-02-26 23:20:00,35.2,33.4,29.62,South,179,5.0,13.0,93,0.03,,,0.65,meteohub,2013-02-27 04:20:00,
2013-02-26 23:25:00,35.2,33.4,29.62,SSW,207,3.0,12.0,93,0.02,,,0.65,meteohub,2013-02-27 04:25:00,
2013-02-26 23:30:00,35.2,33.4,29.62,SSW,198,2.0,13.0,93,0.02,,,0.65,meteohub,2013-02-27 04:30:00,
2013-02-26 23:35:00,35.2,33.4,29.62,South,181,3.0,15.0,93,0.01,,,0.65,meteohub,2013-02-27 04:35:00,
2013-02-26 23:40:00,35.4,33.3,29.62,South,176,4.0,15.0,92,0.02,,,0.66,meteohub,2013-02-27 04:40:00,
2013-02-26 23:45:00,35.2,33.1,29.61,WSW,246,6.0,15.0,92,0.02,,,0.66,meteohub,2013-02-27 04:45:00,
2013-02-26 23:50:00,35.4,33.3,29.61,SSW,203,6.0,12.0,92,0.02,,,0.66,meteohub,2013-02-27 04:50:00,
2013-02-26 23:56:00,35.2,33.1,29.61,South,182,4.0,11.0,92,0.02,,,0.66,meteohub,2013-02-27 04:56:00,